Regional Weather Roundup
Issued by NWS

Home | Current Version | Previous Version | Graphics & Text | Print | Product List | Glossary On
Versions: 1 2 3 4 5 6 7 8 9 10 11 12 13 14 15 16 17 18 19 20 21 22 23 24 25 26 27 28 29 30 31 32 33 34 35 36 37 38 39 40 41 42 43 44 45 46 47 48 49 50
000
ASUS43 KLOT 240600
RWRIL

ILLINOIS REGIONAL WEATHER ROUNDUP
NATIONAL WEATHER SERVICE CHICAGO/ROMEOVILLE IL
1200 AM CST MON NOV 24 2014

NOTE: "FAIR" INDICATES FEW OR NO CLOUDS BELOW 12,000 FEET WITH NO
SIGNIFICANT WEATHER AND/OR OBSTRUCTIONS TO VISIBILITY.

* THESE STATIONS ARE NOT UNDER NWS QUALITY CONTROL. THEY ALSO MAY NOT
  REPORT WEATHER SUCH AS PRECIPITATION OR FOG.

ILZ001-002-007-009-015-016-024-240700-
NORTHWEST ILLINOIS

CITY           SKY/WX    TMP DP  RH WIND       PRES   REMARKS
MOLINE         CLOUDY    46  45  96 NW13      29.15S
6HR MIN TEMP:  46; 6HR MAX TEMP:  51; 6HR PCP:  0.05;

STERLING*      CLOUDY    46  45  93 W6        29.13S VSB 1/2
$$

ILZ003-004-008-010-011-017-018-240700-
NORTH CENTRAL ILLINOIS

CITY           SKY/WX    TMP DP  RH WIND       PRES   REMARKS
ROCKFORD       DRZL/FOG  47  45  93 CALM      29.12F VSB 1/2
6HR MIN TEMP:  46; 6HR MAX TEMP:  49; 6HR PCP:  0.24;

$$

ILZ005-006-012>014-019>023-240700-
NORTHEAST ILLINOIS

CITY           SKY/WX    TMP DP  RH WIND       PRES   REMARKS
CHICAGO-OHARE  LGT RAIN  49  48  97 SW5       29.09F FOG
6HR MIN TEMP:  48; 6HR MAX TEMP:  50; 6HR PCP:  0.40;

CHICAGO-MIDWAY LGT RAIN  51  50  96 SW6       29.09F
6HR MIN TEMP:  51; 6HR MAX TEMP:  53; 6HR PCP:  0.42;

AURORA         LGT RAIN  50  47  89 SW7       29.11F FOG
6HR MIN TEMP:  49; 6HR MAX TEMP:  51; 6HR PCP:  0.35;

WAUKEGAN       LGT RAIN  45  44  97 CALM      29.08F VSB 3/4
6HR MIN TEMP:  45; 6HR MAX TEMP:  47; 6HR PCP:  0.52;

DUPAGE AIRPORT LGT RAIN  49  48  97 SW6       29.09F FOG
6HR MIN TEMP:  48; 6HR MAX TEMP:  50; 6HR PCP:  0.42;

WHEELING       LGT RAIN  48  47  96 CALM      29.10F FOG
6HR MIN TEMP:  48; 6HR MAX TEMP:  49; 6HR PCP:  0.39;

NORTHERLY ISL    N/A     50  49  96 SW3         N/A
$$

LMZ740>746-240700-
SOUTHERN LAKE MICHIGAN

STATION/POSITION SKY/WX   TEMP    WIND        PRES    VSBY  WAVE
                          AIR SEA DIR/SP/G                  HT/PER
                          (F)     (DEG/KT/KT) (MB)    (MI)  (FT/S)
SOUTHERN BUOY              45 42  120/  8/  8  986.2F         1/ 3
WAUKEGAN HARBOR            45        CALM       N/A
HARRISON CRIB              47     160/  3/  3   N/A
BURNHAM HARBOR             50     210/  4       N/A
CALUMET HARBOR             50     200/  3/  4  984.7F
MICHIGAN CITY              51     130/  8/  9   N/A
$$

ILZ025>027-034>036-040-047-049-050-058-095>099-240700-
WEST-CENTRAL ILLINOIS

CITY           SKY/WX    TMP DP  RH WIND       PRES   REMARKS
QUINCY         LGT RAIN  43  42  97 NW22G32   29.23S FOG
$$

ILZ028>032-037-038-041>044-048-051>054-059>061-240700-
CENTRAL ILLINOIS

CITY           SKY/WX    TMP DP  RH WIND       PRES   REMARKS
DECATUR        CLOUDY    52  50  93 SW12      29.19S FOG
PEORIA         FOG       51  48  89 SW7       29.15F VSB 1/2
6HR MIN TEMP:  51; 6HR MAX TEMP:  51; 6HR PCP:  0.13;

SPRINGFIELD    CLOUDY    52  51  97 SW8       29.19F FOG
6HR MIN TEMP:  51; 6HR MAX TEMP:  52; 6HR PCP:  0.21;

TAYLORVILLE    NOT AVBL
$$

ILZ033-039-045-046-055>057-062-063-240700-
EAST-CENTRAL ILLINOIS

CITY           SKY/WX    TMP DP  RH WIND       PRES   REMARKS
CHAMPAIGN      CLOUDY    51  51 100 SW15      29.18S FOG
MATTOON        CLOUDY    52  51  97 SW10      29.21S
$$

ILZ079-100>102-240700-
SOUTHWEST ILLINOIS

CITY           SKY/WX    TMP DP  RH WIND       PRES   REMARKS
BELLEVILLE     CLOUDY    55  55 100 S7        29.22F
CAHOKIA*       LGT RAIN  57  55  93 S6        29.21F
$$

ILZ064>066-069>071-074>076-080>082-084>086-088>090-092>094-240700-
SOUTH-CENTRAL ILLINOIS

CITY           SKY/WX    TMP DP  RH WIND       PRES   REMARKS
CARBONDALE     CLOUDY    58  55  90 S18G24    29.26F
6HR MIN TEMP:  52; 6HR MAX TEMP:  58; 6HR PCP:  0.11;

MT. VERNON     CLOUDY    55  52  88 S12G18    29.27S
$$

ILZ067-068-072-073-078-083-087-091-240700-
SOUTHEAST ILLINOIS

CITY           SKY/WX    TMP DP  RH WIND       PRES   REMARKS
LAWRENCEVILLE  CLOUDY    57  50  78 SW14      29.28R
$$

ABBREVIATIONS USED IN REMARKS
   TC - TEMPERATURE IN CELSIUS
  WCI - WIND CHILL INDEX
   HX - HEAT INDEX
  VSB - VISIBILITY
$$




USA.gov is the U.S. government's official web portal to all federal, state and local government web resources and services.